�������l�o���
Date,Time,MP-1(��Sv/h),MP-2(��Sv/h),MP-3(��Sv/h),MP-4(��Sv/h),MP-5(��Sv/h),MP-6(��Sv/h),MP-7(��Sv/h),MP-8(��Sv/h),����,����(m/s),���J
2024/06/15,00:00,0.517,0.793,0.495,0.981,0.721,0.320,0.559,0.514,�쓌,0.6,��
2024/06/15,00:10,0.517,0.792,0.495,0.981,0.719,0.320,0.556,0.515,-,CALM,��
2024/06/15,00:20,0.516,0.791,0.496,0.983,0.722,0.321,0.559,0.516,-,CALM,��
2024/06/15,00:30,0.516,0.792,0.496,0.984,0.722,0.321,0.559,0.515,-,CALM,��
2024/06/15,00:40,0.518,0.789,0.497,0.983,0.720,0.322,0.559,0.515,�k��,0.8,��
2024/06/15,00:50,0.516,0.792,0.496,0.983,0.720,0.322,0.559,0.517,�k�k��,1.5,��
2024/06/15,01:00,0.517,0.792,0.495,0.984,0.720,0.319,0.560,0.516,�k�k��,0.9,��
2024/06/15,01:10,0.518,0.790,0.496,0.981,0.720,0.320,0.559,0.517,�k�k��,1.7,��
2024/06/15,01:20,0.516,0.789,0.495,0.983,0.720,0.323,0.559,0.515,�k�k��,2.3,��
2024/06/15,01:30,0.517,0.792,0.497,0.981,0.723,0.321,0.560,0.517,�k,1.7,��
2024/06/15,01:40,0.517,0.790,0.497,0.982,0.721,0.322,0.559,0.516,�k,2.0,��
2024/06/15,01:50,0.517,0.792,0.496,0.984,0.721,0.320,0.558,0.516,�k,1.5,��
2024/06/15,02:00,0.517,0.790,0.497,0.982,0.722,0.321,0.561,0.516,�k,2.0,��
2024/06/15,02:10,0.514,0.793,0.497,0.984,0.723,0.319,0.560,0.516,�k,2.0,��
2024/06/15,02:20,0.517,0.791,0.495,0.984,0.721,0.321,0.560,0.517,�k�k��,2.2,��
2024/06/15,02:30,0.515,0.790,0.494,0.983,0.724,0.322,0.561,0.517,�k�k��,1.7,��
2024/06/15,02:40,0.516,0.790,0.496,0.982,0.721,0.321,0.559,0.516,�k,2.5,��
2024/06/15,02:50,0.516,0.791,0.495,0.982,0.723,0.321,0.560,0.516,�k,3.0,��
2024/06/15,03:00,0.515,0.790,0.495,0.982,0.721,0.321,0.559,0.516,�k,2.9,��
2024/06/15,03:10,0.515,0.790,0.494,0.981,0.722,0.320,0.559,0.517,�k,2.6,��
2024/06/15,03:20,0.514,0.791,0.494,0.982,0.723,0.320,0.558,0.516,�k,3.0,��
2024/06/15,03:30,0.514,0.789,0.494,0.980,0.720,0.320,0.559,0.516,�k�k��,3.1,��
2024/06/15,03:40,0.514,0.790,0.495,0.980,0.722,0.319,0.558,0.516,�k�k��,3.2,��
2024/06/15,03:50,0.514,0.791,0.493,0.985,0.721,0.322,0.560,0.515,�k�k��,2.0,��
2024/06/15,04:00,0.515,0.789,0.493,0.983,0.720,0.321,0.559,0.516,�k�k��,1.5,��
2024/06/15,04:10,0.517,0.788,0.495,0.981,0.721,0.322,0.560,0.516,�k��,0.9,��
2024/06/15,04:20,0.514,0.792,0.495,0.979,0.722,0.321,0.560,0.515,�k�k��,0.8,��
2024/06/15,04:30,0.514,0.789,0.496,0.983,0.722,0.320,0.559,0.516,�k,0.6,��
2024/06/15,04:40,0.514,0.790,0.495,0.982,0.721,0.322,0.558,0.516,-,CALM,��
2024/06/15,04:50,0.517,0.789,0.494,0.981,0.720,0.322,0.559,0.515,�k��,0.6,��
2024/06/15,05:00,0.514,0.792,0.494,0.980,0.722,0.321,0.558,0.516,-,CALM,��
2024/06/15,05:10,0.515,0.790,0.495,0.981,0.722,0.321,0.560,0.516,-,CALM,��
2024/06/15,05:20,0.516,0.791,0.494,0.981,0.721,0.319,0.559,0.517,-,CALM,��
2024/06/15,05:30,0.516,0.790,0.496,0.981,0.721,0.320,0.559,0.517,-,CALM,��
2024/06/15,05:40,0.516,0.790,0.496,0.980,0.721,0.322,0.560,0.517,�k�k��,1.2,��
2024/06/15,05:50,0.515,0.791,0.496,0.982,0.721,0.319,0.560,0.516,�k,2.0,��
2024/06/15,06:00,0.515,0.793,0.495,0.983,0.719,0.319,0.558,0.516,�k,1.7,��
2024/06/15,06:10,0.517,0.791,0.495,0.979,0.718,0.320,0.560,0.515,�k�k��,2.0,��
2024/06/15,06:20,0.515,0.791,0.497,0.984,0.721,0.320,0.560,0.513,�k,1.5,��
2024/06/15,06:30,0.515,0.791,0.496,0.984,0.720,0.320,0.557,0.516,�k,1.7,��
2024/06/15,06:40,0.516,0.791,0.497,0.982,0.722,0.319,0.559,0.515,�k,1.5,��
2024/06/15,06:50,0.515,0.791,0.496,0.981,0.722,0.319,0.561,0.516,�k,1.2,��
2024/06/15,07:00,0.516,0.790,0.495,0.981,0.720,0.320,0.560,0.516,�k�k��,0.9,��
2024/06/15,07:10,0.516,0.790,0.494,0.981,0.720,0.318,0.559,0.515,�k��,0.9,��
2024/06/15,07:20,0.516,0.788,0.494,0.981,0.719,0.319,0.558,0.515,���k��,0.9,��
2024/06/15,07:30,0.513,0.789,0.495,0.979,0.719,0.319,0.560,0.514,���k��,1.5,��
2024/06/15,07:40,0.514,0.787,0.494,0.983,0.720,0.317,0.558,0.514,�k��,1.4,��
2024/06/15,07:50,0.514,0.789,0.493,0.980,0.719,0.319,0.559,0.513,��,1.4,��
2024/06/15,08:00,0.513,0.787,0.494,0.981,0.716,0.319,0.558,0.513,��,2.0,��
2024/06/15,08:10,0.513,0.788,0.494,0.980,0.719,0.319,0.559,0.513,���쓌,2.0,��
2024/06/15,08:20,0.514,0.787,0.494,0.982,0.719,0.319,0.560,0.513,���쓌,2.0,��
2024/06/15,08:30,0.514,0.788,0.493,0.980,0.720,0.318,0.560,0.515,�쓌,3.2,��
2024/06/15,08:40,0.516,0.787,0.495,0.980,0.718,0.318,0.559,0.514,��쓌,2.5,��
2024/06/15,08:50,0.514,0.788,0.491,0.981,0.718,0.318,0.558,0.513,�쓌,2.6,��
2024/06/15,09:00,0.514,0.787,0.492,0.980,0.717,0.318,0.560,0.514,��쓌,2.9,��
2024/06/15,09:10,0.515,0.789,0.493,0.980,0.718,0.319,0.559,0.515,�쓌,2.3,��
2024/06/15,09:20,0.514,0.788,0.494,0.980,0.717,0.318,0.560,0.512,��쓌,3.3,��
2024/06/15,09:30,0.515,0.787,0.492,0.980,0.719,0.317,0.559,0.514,��쓌,3.2,��
2024/06/15,09:40,0.515,0.789,0.493,0.978,0.718,0.320,0.559,0.515,�쓌,2.8,��
2024/06/15,09:50,0.513,0.789,0.492,0.981,0.718,0.319,0.561,0.513,��쓌,2.6,��
2024/06/15,10:00,0.514,0.786,0.492,0.979,0.718,0.318,0.560,0.513,��쓌,4.6,��
2024/06/15,10:10,0.513,0.789,0.494,0.981,0.720,0.319,0.560,0.514,��쓌,5.8,��
2024/06/15,10:20,0.514,0.788,0.495,0.978,0.718,0.320,0.562,0.513,��쓌,6.5,��
2024/06/15,10:30,0.515,0.789,0.492,0.980,0.719,0.319,0.562,0.514,��쓌,7.2,��
2024/06/15,10:40,0.514,0.787,0.492,0.980,0.718,0.320,0.561,0.513,��쓌,7.8,��
2024/06/15,10:50,0.515,0.789,0.493,0.980,0.718,0.319,0.559,0.515,��쓌,7.3,��
2024/06/15,11:00,0.515,0.788,0.494,0.980,0.718,0.320,0.560,0.514,��쓌,9.4,��
2024/06/15,11:10,0.515,0.789,0.493,0.979,0.718,0.321,0.560,0.515,��쓌,9.3,��
2024/06/15,11:20,0.516,0.787,0.493,0.977,0.718,0.319,0.560,0.515,��쓌,11.0,��
2024/06/15,11:30,0.515,0.789,0.494,0.977,0.719,0.319,0.559,0.514,��쓌,9.6,��
2024/06/15,11:40,0.516,0.788,0.493,0.978,0.719,0.319,0.559,0.512,��쓌,11.6,��
2024/06/15,11:50,0.517,0.788,0.496,0.980,0.718,0.319,0.559,0.515,��쓌,12.4,��
2024/06/15,12:00,0.515,0.789,0.495,0.981,0.719,0.320,0.559,0.514,��쓌,13.9,��
2024/06/15,12:10,0.514,0.791,0.494,0.980,0.720,0.320,0.559,0.515,��쓌,12.2,��
2024/06/15,12:20,0.517,0.789,0.494,0.979,0.718,0.320,0.557,0.514,��쓌,12.8,��
2024/06/15,12:30,0.515,0.788,0.493,0.981,0.719,0.320,0.560,0.514,��쓌,12.0,��
2024/06/15,12:40,0.514,0.789,0.493,0.981,0.719,0.320,0.560,0.514,��쓌,11.6,��
2024/06/15,12:50,0.516,0.789,0.494,0.980,0.717,0.321,0.559,0.515,��쓌,10.5,��
2024/06/15,13:00,0.514,0.789,0.494,0.980,0.719,0.320,0.559,0.515,��쓌,10.8,��
2024/06/15,13:10,0.515,0.789,0.495,0.980,0.721,0.319,0.558,0.515,��쓌,11.3,��
2024/06/15,13:20,0.514,0.790,0.493,0.979,0.720,0.320,0.559,0.515,��쓌,12.4,��
2024/06/15,13:30,0.516,0.790,0.495,0.980,0.721,0.320,0.557,0.513,��쓌,13.8,��
2024/06/15,13:40,0.515,0.789,0.494,0.979,0.719,0.320,0.556,0.515,��쓌,11.3,��
2024/06/15,13:50,0.517,0.790,0.493,0.980,0.720,0.319,0.557,0.514,��쓌,11.6,��
2024/06/15,14:00,0.517,0.789,0.493,0.981,0.721,0.320,0.560,0.516,��쓌,10.5,��
2024/06/15,14:10,0.516,0.789,0.495,0.982,0.721,0.319,0.558,0.516,��쓌,11.3,��
2024/06/15,14:20,0.515,0.790,0.492,0.980,0.720,0.319,0.557,0.516,��,12.0,��
2024/06/15,14:30,0.515,0.790,0.494,0.980,0.721,0.319,0.558,0.515,��쓌,11.6,��
2024/06/15,14:40,0.516,0.788,0.494,0.980,0.721,0.319,0.556,0.514,��쓌,13.0,��
2024/06/15,14:50,0.516,0.790,0.493,0.981,0.720,0.320,0.558,0.514,��쓌,12.7,��
2024/06/15,15:00,0.517,0.789,0.492,0.981,0.721,0.318,0.557,0.515,��쓌,13.5,��
2024/06/15,15:10,0.515,0.791,0.495,0.981,0.719,0.321,0.557,0.515,��쓌,14.2,��
2024/06/15,15:20,0.516,0.791,0.495,0.982,0.723,0.320,0.557,0.514,��,13.3,��
2024/06/15,15:30,0.515,0.790,0.493,0.981,0.723,0.320,0.556,0.513,��,13.8,��
2024/06/15,15:40,0.515,0.789,0.493,0.979,0.721,0.320,0.557,0.516,��쓌,10.9,��
2024/06/15,15:50,0.517,0.790,0.493,0.982,0.723,0.319,0.558,0.515,��쓌,12.8,��
2024/06/15,16:00,0.516,0.788,0.493,0.981,0.723,0.320,0.556,0.515,��,11.6,��
2024/06/15,16:10,0.514,0.788,0.496,0.982,0.721,0.320,0.556,0.514,��쓌,13.0,��
2024/06/15,16:20,0.517,0.789,0.494,0.983,0.720,0.319,0.558,0.514,��쓌,13.5,��
2024/06/15,16:30,0.516,0.789,0.493,0.980,0.722,0.320,0.556,0.514,��쓌,13.1,��
2024/06/15,16:40,0.515,0.789,0.495,0.982,0.722,0.320,0.556,0.514,��쓌,13.0,��
2024/06/15,16:50,0.515,0.791,0.494,0.982,0.723,0.319,0.556,0.515,��,12.4,��
2024/06/15,17:00,0.514,0.790,0.495,0.979,0.721,0.320,0.556,0.513,��,11.9,��
2024/06/15,17:10,0.517,0.790,0.494,0.981,0.721,0.318,0.557,0.513,��,9.9,��
2024/06/15,17:20,0.516,0.789,0.495,0.980,0.719,0.319,0.557,0.513,��,8.7,��
2024/06/15,17:30,0.515,0.793,0.494,0.981,0.721,0.318,0.556,0.513,��,9.6,��
2024/06/15,17:40,0.516,0.791,0.493,0.981,0.721,0.319,0.557,0.514,��,10.7,��
2024/06/15,17:50,0.516,0.791,0.494,0.981,0.721,0.318,0.556,0.515,��,11.8,��
2024/06/15,18:00,0.514,0.789,0.493,0.983,0.723,0.317,0.557,0.517,��,11.3,��
2024/06/15,18:10,0.514,0.789,0.495,0.983,0.722,0.318,0.558,0.517,��,11.3,��
2024/06/15,18:20,0.514,0.792,0.494,0.984,0.722,0.318,0.557,0.515,��,11.9,��
2024/06/15,18:30,0.515,0.790,0.493,0.983,0.721,0.319,0.558,0.516,��,11.1,��
2024/06/15,18:40,0.514,0.790,0.494,0.983,0.721,0.319,0.557,0.516,��,11.1,��
2024/06/15,18:50,0.514,0.791,0.494,0.983,0.721,0.318,0.559,0.517,��,11.1,��
2024/06/15,19:00,0.514,0.791,0.495,0.985,0.719,0.319,0.559,0.517,��,10.9,��
2024/06/15,19:10,0.514,0.792,0.494,0.984,0.723,0.319,0.558,0.514,��,9.8,��
2024/06/15,19:20,0.514,0.791,0.494,0.985,0.723,0.319,0.560,0.516,��,9.2,��
2024/06/15,19:30,0.514,0.789,0.496,0.986,0.724,0.319,0.557,0.515,��,8.3,��
2024/06/15,19:40,0.514,0.791,0.495,0.986,0.723,0.318,0.557,0.517,��,9.3,��
2024/06/15,19:50,0.514,0.792,0.496,0.986,0.722,0.318,0.559,0.518,��,9.5,��
2024/06/15,20:00,0.514,0.792,0.496,0.986,0.723,0.319,0.557,0.517,��,10.3,��
2024/06/15,20:10,0.514,0.791,0.495,0.984,0.721,0.319,0.557,0.516,��,10.2,��
2024/06/15,20:20,0.514,0.790,0.494,0.984,0.724,0.319,0.559,0.516,��쓌,11.3,��
2024/06/15,20:30,0.515,0.792,0.496,0.983,0.722,0.319,0.557,0.517,��쓌,10.9,��
2024/06/15,20:40,0.514,0.791,0.495,0.982,0.721,0.319,0.558,0.516,��,9.8,��
2024/06/15,20:50,0.514,0.790,0.494,0.982,0.723,0.320,0.558,0.516,��쓌,8.6,��
2024/06/15,21:00,0.513,0.792,0.495,0.984,0.722,0.319,0.558,0.516,��,9.6,��
2024/06/15,21:10,0.514,0.789,0.496,0.984,0.721,0.319,0.557,0.516,��,9.6,��
2024/06/15,21:20,0.512,0.788,0.496,0.983,0.721,0.319,0.557,0.515,��,8.6,��
2024/06/15,21:30,0.515,0.789,0.495,0.984,0.721,0.320,0.558,0.516,��,9.1,��
2024/06/15,21:40,0.514,0.791,0.494,0.983,0.720,0.319,0.558,0.517,��,8.4,��
2024/06/15,21:50,0.515,0.788,0.494,0.985,0.721,0.320,0.559,0.517,��,8.5,��
2024/06/15,22:00,0.515,0.790,0.497,0.984,0.722,0.319,0.559,0.517,��,8.9,��
2024/06/15,22:10,0.515,0.791,0.496,0.983,0.720,0.319,0.559,0.516,��,8.5,��
2024/06/15,22:20,0.514,0.791,0.495,0.987,0.721,0.319,0.559,0.517,��,8.1,��
2024/06/15,22:30,0.515,0.790,0.495,0.982,0.721,0.320,0.559,0.517,��,7.1,��
2024/06/15,22:40,0.514,0.791,0.494,0.983,0.721,0.319,0.558,0.516,��,6.6,��
2024/06/15,22:50,0.515,0.791,0.494,0.985,0.720,0.319,0.558,0.515,��,5.9,��
2024/06/15,23:00,0.515,0.794,0.494,0.986,0.722,0.319,0.558,0.517,��,5.4,��
2024/06/15,23:10,0.516,0.791,0.496,0.984,0.722,0.319,0.559,0.516,��,4.6,��
2024/06/15,23:20,0.513,0.790,0.495,0.983,0.722,0.319,0.558,0.515,��,5.5,��
2024/06/15,23:30,0.515,0.789,0.496,0.984,0.721,0.319,0.557,0.516,��,4.7,��
2024/06/15,23:40,0.516,0.790,0.496,0.985,0.722,0.320,0.558,0.515,��쐼,2.8,��
2024/06/15,23:50,0.517,0.792,0.497,0.983,0.721,0.320,0.558,0.517,��쐼,2.3,��
